Regional Weather Roundup
Issued by NWS Newport/Morehead, NC

Home | Current Version | Previous Version | Text Only | Print | Product List | Glossary On
Versions: 1 2 3 4 5 6 7 8 9 10 11 12 13 14 15 16 17 18 19 20 21 22 23 24 25 26 27 28 29 30 31 32 33 34 35 36 37 38 39 40 41 42 43 44 45 46 47 48 49 50
355
ASUS42 KMHX 250125
RWRMHX
WEATHER ROUNDUP FOR EASTERN NORTH CAROLINA
NATIONAL WEATHER SERVICE NEWPORT/MOREHEAD CITY NC
900 PM EDT WED MAY 24 2017

NOTE: "FAIR" INDICATES FEW OR NO CLOUDS BELOW 12,000 FEET
WITH NO SIGNIFICANT WEATHER AND/OR OBSTRUCTIONS TO VISIBILITY

NCZ015>017-031-032-045>047-102-103-250200-
NORTH COAST

CITY           SKY/WX    TMP DP  RH WIND       PRES   REMARKS
EDENTON        LGT RAIN  68  66  92 E8        29.66S
ELIZABETH CITY LGT RAIN  63  62  97 E15       29.68F
KITTY HAWK     LGT RAIN  64  64 100 CALM      29.69F
MANTEO         LGT RAIN  64  64  97 SE9       29.71S

$$

NCZ045>047-081-094-103-104-250200-
CENTRAL COAST

CITY           SKY/WX    TMP DP  RH WIND       PRES   REMARKS
FRISCO         NOT AVBL

$$

NCZ095-097-098-100-101-250200-
SOUTHERN COAST

CITY           SKY/WX    TMP DP  RH WIND       PRES   REMARKS
BEAUFORT       LGT RAIN  73  70  90 S21       29.66F
CEDAR ISLAND   NOT AVBL
JACKSONVILLE   LGT RAIN  72  69  90 S12G24    29.61F
PINEY ISLAND   CLOUDY   N/A N/A N/A S9        29.66F
WILMINGTON     LGT RAIN  71  68  90 S12       29.62F


$$

NCZ011>013-027>030-043-044-078>080-089-090>093-098-250200-
COASTAL PLAIN

CITY           SKY/WX    TMP DP  RH WIND       PRES   REMARKS
AHOSKIE        NOT AVBL
CLINTON        LGT RAIN  71  67  88 S6        29.59F
ELIZABETHTOWN  LGT RAIN  71  67  88 SE9       29.58F
GOLDSBORO      MOCLDY    73  69  86 S8        29.58F
GREENVILLE     CLOUDY    73  72  94 S7        29.64S
HAVELOCK       CLOUDY    72  69  90 S14G22    29.65F
KENANSVILLE    CLOUDY    72  66  83 S5        29.60F
KINSTON        MOCLDY    72  66  83 S3        29.61S
NEW BERN       CLOUDY    71  70  96 S9        29.63F
RICHLANDS      CLOUDY    70  69  97 S8        29.61F
ROCKY MOUNT    CLOUDY    69  69 100 CALM      29.59F
WASHINGTON     CLOUDY    72  67  85 S8        29.62F
WHITEVILLE     CLOUDY    70  67  90 SE7       29.57F

$$

AMZ130-135-150-152-154-156-158-170-250-252-270-ANZ085-086-088-633-658-670-250200-
MARINE OBSERVATIONS

STATION/POSITION TIME  TEMP    WIND        PRES    WAVE   SWELL
                       AIR SEA DIR/SP/G            HT/PER HT/PER
                 (UTC) (F)     (DEG/KT/KT) (MB)    (FT/S) (FT/S)
CHESAPEAKE LIGHT NOT AVBL
64 E VA BEACH    0050   64 65   70/ 14/ 16 1006.7    4/ 7   3/ 7
DUCK             0100   63 65  100/ 13/ 15 1005.2
2 E DUCK         0100      65                N/A     4/ 6
OREGON INLET     0100   65 71   90/  6/ 10   N/A
13E OREGON INLT  0048      66                N/A     5/ 8   3/ 8
HATTERAS CG      0100   69 74  220/ 10/ 27 1005.7
DIAMOND BUOY     0050   78 75  210/ 21/ 27 1005.6    5/ 8   3/ 8
CAPE LOOKOUT     0100   73     190/ 15/ 19 1004.6
BEAUFORT LAB     0100   74 72  180/ 21/ 25 1003.5
30 SE NEW RVR IN 0108   74 76  190/ 17     1004.8
30 SE NEW RVR IN 0113      76                N/A     6/ 8   2/13
27 SE WRIGHTSVLE 0108   73 75  170/ 19/ 23 1003.6
5 SE WRIGHTSVLE  0108   73 75  170/ 14/ 25 1003.3
225 S CAPE HAT   0050   78 77  170/ 19/ 25 1009.5    8/ 8
41 SE CHARLESTON 0100   76 76  170/ 19/ 23 1001.8

$$




USA.gov is the U.S. government's official web portal to all federal, state and local government web resources and services.